[[{"header":{"parameterUnit":"m.s-1","parameterCategory":1,"la1":30.2991,"la2":30.254,"lo1":-89.0895,"lo2":-89.0444,"dy":0.0017,"dx":0.0017,"nx":28,"ny":28,"refTime":"2023-04-22T21:00:00:Z","depth":0,"parameterNumber":2,"parameterNumberName":"U-component_of_WINDS"},"data":[0,0,0,0,0,0,0,0,0,0,0,0,0,0,0,0,0,0,0,0,0,0,0,0,0,0,0,0,0,0,0,0,0,0,0,0,0,0,0,0,0,0,0,0,0,0,0,0,0,0,0,0,0,0,0,0,0,0,-3.2216,-3.2216,0,-3.2286,-3.2287,-3.2288,-3.216,-3.2156,-3.2152,-3.2148,-3.2225,-3.2231,-3.2237,0,0,0,0,0,0,0,0,0,0,0,0,0,-3.1975,-3.198,-3.2216,-3.2217,-3.2217,-3.2286,-3.2287,-3.2288,-3.2161,-3.2156,-3.2151,-3.2146,-3.2223,-3.223,-3.2237,0,0,0,0,0,0,0,0,0,0,0,0,0,-3.2066,-3.1982,-3.2216,-3.2162,-3.2158,-3.2286,-3.2287,-3.2288,-3.2162,-3.2156,-3.2149,-3.2143,-3.222,-3.2229,-3.2238,-3.2422,0,0,-3.2266,-3.227,0,0,0,0,0,0,0,0,-3.2061,-3.2075,-3.2169,-3.2166,-3.2162,-3.2208,-3.223,-3.2333,-3.2164,-3.2161,-3.2148,-3.214,-3.2225,-3.2233,-3.226,-3.2426,-3.2429,-3.2267,-3.2272,-3.2276,-3.2279,0,0,0,0,0,0,0,-3.2055,-3.2071,-3.2244,-3.2171,-3.2166,-3.2136,-3.2142,-3.2249,-3.2228,-3.2161,-3.2152,-3.2161,-3.2221,-3.2252,-3.2261,-3.243,-3.2266,-3.2274,-3.228,-3.2283,-3.275,-3.2757,0,0,0,0,0,0,-3.2055,-3.2067,-3.2241,-3.2246,-3.2094,-3.2146,-3.2152,-3.22,-3.2226,-3.2224,-3.2167,-3.2155,-3.224,-3.2251,-3.2263,-3.2481,-3.2276,-3.2284,-3.229,-3.2744,-3.2752,-3.2759,0,0,0,0,0,0,-3.205,-3.2071,-3.2238,-3.2154,-3.2173,-3.2156,-3.2211,-3.2204,-3.2235,-3.2231,-3.2227,-3.2202,-3.2235,-3.2251,-3.2383,-3.2482,-3.2288,-3.2297,-3.2735,-3.2746,-3.2756,-3.2919,0,0,0,0,0,0,-3.2044,-3.207,-3.214,-3.2156,-3.2178,-3.2357,-3.2217,-3.221,-3.225,-3.2236,-3.2263,-3.2261,-3.2231,-3.2371,-3.2392,-3.2491,-3.2304,-3.2726,-3.274,-3.2752,-3.2904,-3.2933,-3.2958,0,0,0,0,0,-3.2035,-3.2184,-3.2144,-3.2166,-3.2264,-3.2363,-3.2375,-3.2336,-3.2259,-3.2329,-3.2326,-3.226,-3.2467,-3.2385,-3.2409,-3.2512,-3.272,-3.2736,-3.2751,-3.2892,-3.2928,-3.2957,0,0,0,0,0,0,-3.2181,-3.2185,-3.2141,-3.2299,-3.2331,-3.2341,-3.2428,-3.2375,-3.2432,-3.2416,-3.2366,-3.2374,-3.2517,-3.2527,-3.2436,-3.2691,-3.2581,-3.2602,-3.268,-3.2713,-3.274,-3.2735,-3.2311,0,0,0,0,0,-3.2231,-3.231,-3.231,-3.2449,-3.2467,-3.2445,-3.2487,-3.2454,-3.2486,-3.25,-3.2507,-3.2542,-3.2615,-3.2664,-3.2731,-3.2904,-3.2909,-3.2987,-3.3013,-3.3035,-3.3055,-3.3148,-3.3183,-3.2811,-3.2811,-3.2811,0,0,-3.2337,-3.2348,-3.2402,-3.2479,-3.25,-3.2584,-3.2458,-3.2552,-3.2615,-3.2515,-3.264,-3.2647,-3.2683,-3.2837,-3.2905,-3.285,-3.3158,-3.3055,-3.3073,-3.3081,-3.3168,-3.3203,-3.3235,-3.2822,-3.282,-3.2818,0,0,-3.2572,-3.2588,-3.2706,-3.2729,-3.2762,-3.2746,-3.2775,-3.2793,-3.2793,-3.2917,-3.2844,-3.2918,-3.3044,-3.3073,-3.3104,-3.3348,-3.329,-3.3371,-3.3513,-3.3604,-3.3633,-3.3659,-3.3748,-3.378,-3.339,-3.3391,-3.3391,0,-3.27,-3.2822,-3.2774,-3.2873,-3.291,-3.2821,-3.2941,-3.2966,-3.302,-3.3048,-3.2984,-3.3141,-3.3159,-3.3318,-3.3378,-3.3405,-3.3437,-3.3369,-3.3632,-3.3658,-3.3681,-3.3765,-3.3799,-3.34,-3.3399,-3.3398,-3.3397,0,-3.2977,-3.3063,-3.3155,-3.3207,-3.3254,-3.3363,-3.3333,-3.3386,-3.3348,-3.3339,-3.3468,-3.3485,-3.3554,-3.3589,-3.3554,-3.3745,-3.3709,-3.364,-3.3529,-3.3727,-3.3806,-3.3837,-3.3414,-3.3411,-3.3408,-3.3406,0,0,-3.3309,-3.3332,-3.3367,-3.3389,-3.3418,-3.3485,-3.359,-3.3655,-3.3702,-3.3742,-3.383,-3.3938,-3.3874,-3.3909,-3.3876,-3.3956,-3.415,-3.3877,-3.3877,-3.3929,-3.4362,-3.4416,-3.4454,-3.4111,-3.4116,-3.4121,-3.436,0,-3.3544,-3.3724,-3.3683,-3.3861,-3.394,-3.3856,-3.3947,-3.3976,-3.397,-3.4037,-3.4031,-3.4109,-3.4017,-3.4038,-3.4113,-3.4111,-3.4237,-3.4093,-3.4194,-3.4198,-3.419,-3.4494,-3.4551,-3.4776,-3.439,-3.4395,-3.4399,0,-3.3842,-3.3891,-3.4077,-3.4093,-3.4124,-3.4208,-3.4264,-3.4329,-3.4359,-3.4349,-3.4388,-3.434,-3.4445,-3.433,-3.4475,-3.4378,-3.4417,-3.4422,-3.443,-3.444,-3.4313,-3.4515,-3.4846,-3.4881,-3.4446,-3.4442,-3.4439,0,-3.4068,-3.418,-3.4306,-3.4328,-3.4349,-3.4409,-3.4421,-3.4445,-3.4487,-3.4536,-3.4563,-3.4625,-3.466,-3.4709,-3.4679,-3.4598,-3.483,-3.4713,-3.4827,-3.4828,-3.4882,-3.4879,-3.5227,-3.4903,-3.4903,-3.4902,-3.4901,0,-3.4335,-3.4453,-3.4407,-3.4485,-3.4614,-3.4566,-3.4695,-3.4697,-3.4719,-3.4797,-3.4727,-3.4801,-3.4756,-3.4827,-3.4804,-3.4928,-3.4944,-3.494,-3.4933,-3.4948,-3.4949,-3.4975,-3.4959,-3.4911,-3.4909,-3.4907,-3.4906,0,-3.4611,-3.4584,-3.4716,-3.4724,-3.4729,-3.4824,-3.4831,-3.4904,-3.4891,-3.499,-3.5011,-3.4993,-3.5072,-3.5046,-3.5133,-3.5117,-3.5276,-3.5247,-3.5266,-3.5259,-3.5375,-3.5366,-3.5753,-3.5802,-3.5446,-3.5449,-3.5452,0,-3.4784,-3.4872,-3.4889,-3.4935,-3.4951,-3.5026,-3.5068,-3.5024,-3.507,-3.5111,-3.518,-3.5253,-3.5309,-3.5441,-3.5437,-3.5502,-3.5476,-3.5607,-3.5486,-3.5498,-3.5481,-3.5477,-3.5486,-3.5633,-3.5637,-3.564,-3.5643,0,-3.5096,-3.5078,-3.514,-3.5198,-3.525,-3.5293,-3.5331,-3.5373,-3.5331,-3.5387,-3.5467,-3.5511,-3.5597,-3.5672,-3.5731,-3.5744,-3.5689,-3.5681,-3.5711,-3.5728,-3.5736,-3.5735,-3.5334,-3.5673,-3.567,-3.5668,-3.5666,-3.5665,-3.5327,-3.5401,-3.5425,-3.5496,-3.5519,-3.5556,-3.5624,-3.5619,-3.5685,-3.5751,-3.5721,-3.5814,-3.5841,-3.5915,-3.5936,-3.6009,-3.5958,-3.6002,-3.6013,-3.6025,-3.6041,-3.5722,-3.6019,-3.6018,-3.6017,-3.6016,-3.6016,0,-3.5637,-3.5647,-3.5713,-3.5767,-3.5823,-3.5762,-3.58,-3.5852,-3.5934,-3.5964,-3.602,-3.6112,-3.6183,-3.6183,-3.625,-3.6308,-3.6285,-3.6328,-3.6324,-3.6329,-3.6081,-3.6049,-3.6346,-3.6346,-3.6346,-3.6346,-3.6346,-3.6346,-3.5805,-3.5927,-3.5912,-3.6046,-3.6055,-3.6144,-3.6172,-3.6205,-3.6229,-3.6334,-3.6392,-3.6391,-3.6409,-3.6476,-3.6539,-3.6537,-3.6566,-3.662,-3.6609,-3.6379,-3.6346,-3.6315,-3.6284,-3.6626,-3.6626,-3.685,-3.6852,-3.6854]},{"header":{"parameterUnit":"m.s-1","parameterCategory":1,"la1":30.2991,"la2":30.254,"lo1":-89.0895,"lo2":-89.0444,"dy":0.0017,"dx":0.0017,"nx":28,"ny":28,"refTime":"2023-04-22T21:00:00:Z","depth":0,"parameterNumber":3,"parameterNumberName":"V-component_of_WINDS"},"data":[0,0,0,0,0,0,0,0,0,0,0,0,0,0,0,0,0,0,0,0,0,0,0,0,0,0,0,0,0,0,0,0,0,0,0,0,0,0,0,0,0,0,0,0,0,0,0,0,0,0,0,0,0,0,0,0,0,0,-2.5659,-2.5659,0,-2.5668,-2.5668,-2.5668,-2.563,-2.5629,-2.5628,-2.5627,-2.5636,-2.5637,-2.5638,0,0,0,0,0,0,0,0,0,0,0,0,0,-2.5608,-2.5609,-2.5659,-2.5659,-2.566,-2.5668,-2.5668,-2.5668,-2.5631,-2.5629,-2.5628,-2.5627,-2.5635,-2.5637,-2.5638,0,0,0,0,0,0,0,0,0,0,0,0,0,-2.5625,-2.561,-2.5659,-2.5642,-2.564,-2.5668,-2.5668,-2.5668,-2.5631,-2.5629,-2.5628,-2.5626,-2.5635,-2.5637,-2.5638,-2.5683,0,0,-2.5644,-2.5645,0,0,0,0,0,0,0,0,-2.5624,-2.5627,-2.5644,-2.5643,-2.5641,-2.5647,-2.5653,-2.5673,-2.5631,-2.5634,-2.5627,-2.5625,-2.5641,-2.5642,-2.5647,-2.5684,-2.5684,-2.5644,-2.5646,-2.5646,-2.5647,0,0,0,0,0,0,0,-2.5623,-2.5626,-2.5663,-2.5645,-2.5643,-2.5633,-2.5633,-2.5657,-2.5647,-2.5634,-2.5631,-2.5633,-2.5639,-2.5645,-2.5647,-2.5684,-2.5644,-2.5646,-2.5647,-2.5648,-2.5756,-2.5758,0,0,0,0,0,0,-2.5624,-2.5626,-2.5662,-2.5663,-2.5628,-2.5635,-2.5636,-2.5647,-2.5646,-2.5645,-2.5634,-2.5631,-2.5643,-2.5645,-2.5647,-2.5699,-2.5646,-2.5648,-2.5649,-2.5755,-2.5757,-2.5759,0,0,0,0,0,0,-2.5623,-2.5628,-2.5662,-2.5644,-2.5647,-2.5638,-2.565,-2.5648,-2.5653,-2.5647,-2.5644,-2.5642,-2.5642,-2.5645,-2.5674,-2.5698,-2.5649,-2.5651,-2.5753,-2.5755,-2.5758,-2.5803,0,0,0,0,0,0,-2.5622,-2.5628,-2.5645,-2.5644,-2.5648,-2.569,-2.5652,-2.5649,-2.5657,-2.5653,-2.5654,-2.5652,-2.5641,-2.5672,-2.5676,-2.57,-2.5652,-2.575,-2.5754,-2.5757,-2.5799,-2.5806,-2.5813,0,0,0,0,0,-2.562,-2.5658,-2.5646,-2.5651,-2.567,-2.5691,-2.5693,-2.568,-2.5659,-2.5676,-2.5671,-2.5652,-2.5695,-2.5675,-2.568,-2.5705,-2.5749,-2.5753,-2.5757,-2.5796,-2.5805,-2.5813,0,0,0,0,0,0,-2.5662,-2.5657,-2.5645,-2.5683,-2.5688,-2.5685,-2.5706,-2.569,-2.5701,-2.5696,-2.5679,-2.5679,-2.5712,-2.5711,-2.5689,-2.5747,-2.5718,-2.5723,-2.5746,-2.5755,-2.5762,-2.5761,-2.5654,0,0,0,0,0,-2.5676,-2.5694,-2.5689,-2.5723,-2.5726,-2.5716,-2.5724,-2.5713,-2.5717,-2.5719,-2.5717,-2.5721,-2.5735,-2.5745,-2.5758,-2.5799,-2.5798,-2.5818,-2.5825,-2.5831,-2.5835,-2.5855,-2.5864,-2.5772,-2.5772,-2.5772,0,0,-2.5704,-2.5704,-2.5716,-2.5731,-2.5734,-2.5752,-2.5718,-2.5739,-2.5752,-2.5722,-2.575,-2.5748,-2.5752,-2.5787,-2.5802,-2.5787,-2.586,-2.5836,-2.584,-2.5842,-2.586,-2.5869,-2.5876,-2.5774,-2.5774,-2.5773,0,0,-2.5765,-2.5767,-2.5795,-2.5798,-2.5802,-2.5795,-2.5801,-2.5801,-2.5798,-2.5826,-2.5803,-2.5819,-2.5844,-2.5847,-2.5852,-2.5913,-2.5895,-2.5918,-2.5954,-2.5974,-2.5981,-2.5987,-2.6008,-2.6015,-2.5922,-2.5922,-2.5923,0,-2.58,-2.5827,-2.5812,-2.5834,-2.584,-2.5814,-2.5842,-2.5846,-2.5854,-2.5858,-2.5842,-2.5872,-2.5873,-2.5908,-2.5922,-2.5928,-2.5934,-2.5917,-2.5981,-2.5987,-2.5993,-2.6012,-2.602,-2.5925,-2.5925,-2.5925,-2.5924,0,-2.5869,-2.5888,-2.591,-2.5918,-2.5927,-2.5952,-2.5939,-2.595,-2.5938,-2.5933,-2.596,-2.596,-2.5972,-2.598,-2.5968,-2.6012,-2.6003,-2.5984,-2.5954,-2.6005,-2.6022,-2.603,-2.5929,-2.5928,-2.5927,-2.5926,0,0,-2.5957,-2.5955,-2.5963,-2.5965,-2.5967,-2.5981,-2.6005,-2.6016,-2.6025,-2.6031,-2.605,-2.6071,-2.6054,-2.6059,-2.6048,-2.6065,-2.6112,-2.6044,-2.6044,-2.6056,-2.6159,-2.6172,-2.6181,-2.61,-2.6102,-2.6103,-2.6158,0,-2.6015,-2.6055,-2.6041,-2.6081,-2.6097,-2.6072,-2.6092,-2.6095,-2.609,-2.6103,-2.6098,-2.6113,-2.6089,-2.6092,-2.6108,-2.6103,-2.6132,-2.6099,-2.6116,-2.6117,-2.6115,-2.6191,-2.6205,-2.6257,-2.6165,-2.6166,-2.6167,0,-2.6089,-2.6097,-2.6139,-2.6136,-2.6143,-2.6161,-2.617,-2.6183,-2.6185,-2.618,-2.6186,-2.6171,-2.6192,-2.6163,-2.6193,-2.617,-2.6176,-2.6175,-2.6177,-2.6177,-2.6145,-2.6192,-2.6274,-2.6281,-2.6178,-2.6177,-2.6176,0,-2.6147,-2.6169,-2.6196,-2.6199,-2.6198,-2.6211,-2.6211,-2.6211,-2.6219,-2.6226,-2.623,-2.6241,-2.6246,-2.6254,-2.6241,-2.6222,-2.6272,-2.6242,-2.6268,-2.6268,-2.6279,-2.6278,-2.6362,-2.6285,-2.6285,-2.6285,-2.6284,0,-2.6213,-2.6239,-2.6222,-2.6239,-2.6267,-2.6251,-2.6279,-2.6276,-2.6276,-2.6292,-2.6271,-2.6286,-2.6269,-2.6281,-2.6272,-2.6297,-2.63,-2.6296,-2.6293,-2.6297,-2.6297,-2.63,-2.6296,-2.6287,-2.6286,-2.6286,-2.6285,0,-2.6283,-2.6272,-2.63,-2.6296,-2.6295,-2.6316,-2.6312,-2.6327,-2.632,-2.634,-2.6343,-2.6333,-2.6347,-2.6335,-2.6349,-2.6342,-2.6375,-2.6368,-2.6374,-2.6372,-2.6397,-2.6395,-2.6485,-2.6495,-2.6413,-2.6414,-2.6414,0,-2.6325,-2.6345,-2.6342,-2.6351,-2.6352,-2.6366,-2.6373,-2.6357,-2.6366,-2.6369,-2.6383,-2.6395,-2.6404,-2.6428,-2.6421,-2.6431,-2.6423,-2.6454,-2.6424,-2.6427,-2.6422,-2.642,-2.6422,-2.6459,-2.646,-2.6461,-2.6462,0,-2.6402,-2.6395,-2.6406,-2.6415,-2.6424,-2.643,-2.6435,-2.6443,-2.6427,-2.6437,-2.6451,-2.6458,-2.6471,-2.6483,-2.6491,-2.649,-2.6473,-2.6471,-2.6477,-2.6482,-2.6484,-2.6482,-2.6389,-2.6469,-2.6468,-2.6468,-2.6468,-2.6467,-2.6458,-2.6473,-2.6473,-2.6486,-2.6488,-2.6492,-2.6505,-2.65,-2.6511,-2.6521,-2.6511,-2.6528,-2.6528,-2.6537,-2.6538,-2.6551,-2.6538,-2.6547,-2.6549,-2.6551,-2.6555,-2.6483,-2.6552,-2.6552,-2.6552,-2.6551,-2.6551,0,-2.6532,-2.653,-2.6542,-2.6549,-2.6558,-2.6542,-2.6545,-2.6554,-2.6569,-2.6571,-2.658,-2.6595,-2.6607,-2.6601,-2.661,-2.6621,-2.6613,-2.6624,-2.6623,-2.6622,-2.6566,-2.6559,-2.663,-2.663,-2.663,-2.663,-2.663,-2.663,-2.6571,-2.6596,-2.6589,-2.6614,-2.6612,-2.6628,-2.6632,-2.6635,-2.6637,-2.6655,-2.6664,-2.666,-2.6658,-2.6667,-2.6677,-2.6675,-2.6679,-2.6692,-2.6687,-2.6634,-2.6627,-2.6619,-2.6612,-2.6693,-2.6693,-2.6742,-2.6742,-2.6743]}]]